Home   Weather   Ushuaia   Past weeks
Flag for Argentina

Past Weather in Ushuaia, Tierra del Fuego, Argentina — Yesterday and Last 2 Weeks

Now
45 °F

Light rain. Partly cloudy.


Feels Like: 43 °F
Forecast: 51 / 42 °F
Wind: 3 mph from Northeast

Location: Ushuaia Aerodrome

Current Time: Dec 8, 2019 at 11:21:45 pm

Latest Report: Dec 8, 2019 at 11:10 pm


Visibility: N/A

Pressure: 29.24 "Hg

Humidity: 87%

Dew Point: 41 °F

Location of UshuaiaLocation

Past Weather in Ushuaia — Graph

°F

Ushuaia Temperature Yesterday

Maximum temperature yesterday: 46 °F (at 3:00 pm)
Minimum temperature yesterday: 41 °F (at 5:00 am)
Average temperature yesterday: 44 °F

High & Low Weather Summary for the Past Weeks

 TemperatureHumidityPressure
High57 °F (Nov 25, 2:00 pm)93% (Nov 24, 11:00 am)29.98 "Hg (Nov 24, 11:00 am)
Low39 °F (Nov 28, 1:00 am)38% (Nov 23, 10:00 pm)29.15 "Hg (Nov 26, 3:00 am)
Average47 °F71%29.56 "Hg
* Reported Nov 23 10:00 pm — Dec 8 10:00 pm, Ushuaia. Weather by CustomWeather, © 2019

Note: Actual official high and low records may vary slightly from our data, if they occured in-between our weather recording intervals... More about our weather records

Ushuaia Weather History for the Previous 24 Hours

Scroll right to see more
 ConditionsComfort  
Time TempWeatherWind HumidityBarometerVisibility
10:00 pm
Sun, Dec 8
45 °FScattered showers. Partly cloudy.8 mph87%29.30 "HgN/A
9:00 pm45 °FDrizzle. More clouds than sun.9 mph87%29.33 "HgN/A
8:00 pm45 °FDrizzle. More clouds than sun.14 mph87%29.36 "HgN/A
7:00 pm48 °FDrizzle. Partly sunny.5 mph66%29.39 "HgN/A
6:00 pm50 °FScattered showers. Partly sunny.7 mph58%29.42 "HgN/A
5:00 pm50 °FScattered showers. Partly sunny.8 mph54%29.42 "HgN/A
4:00 pm50 °FScattered showers. Partly sunny.8 mph71%29.45 "HgN/A
3:00 pm48 °FPartly sunny.8 mph71%29.47 "HgN/A
2:00 pm48 °FPartly sunny.13 mph71%29.47 "HgN/A
1:00 pm46 °FPartly sunny.17 mph76%29.50 "HgN/A
12:00 pm46 °FPartly sunny.15 mph71%29.53 "HgN/A
11:00 am46 °FPartly sunny.20 mph66%29.53 "HgN/A
10:00 am45 °FPartly sunny.22 mph71%29.53 "HgN/A
9:00 am46 °FPartly sunny.25 mph66%29.53 "HgN/A
8:00 am45 °FScattered showers. Broken clouds.24 mph71%29.53 "HgN/A
7:00 am45 °FScattered showers. Partly sunny.29 mph61%29.53 "HgN/A
6:00 am43 °FScattered showers. Scattered clouds.29 mph76%29.53 "HgN/A
5:00 am43 °FScattered showers. Scattered clouds.33 mph76%29.53 "HgN/A
4:00 am43 °FScattered showers. Partly cloudy.35 mph71%29.53 "HgN/A
3:00 am43 °FPartly cloudy.38 mph76%29.53 "HgN/A
2:00 am41 °FPartly cloudy.36 mph81%29.53 "HgN/A
1:00 am43 °FPassing clouds.30 mph76%29.53 "HgN/A
12:00 am43 °FPassing clouds.29 mph81%29.53 "HgN/A
11:00 pm
Sat, Dec 7
43 °FScattered showers. Passing clouds.31 mph81%29.53 "HgN/A
Weather by CustomWeather, © 2019

See weather overview

Advertising